Weather History for KESN - March, 2013

Change the Weather History Date:

Thursday, March 7, 2013

  Actual Average Record
Temperature  
Mean Temperature 42 °F -  
Max Temperature 48 °F 53 °F 74 °F (1961)
Min Temperature 36 °F 33 °F 12 °F (2015)
Degree Days  
Heating Degree Days 23    
Moisture  
Dew Point 30 °F    
Average Humidity 67    
Maximum Humidity 80    
Minimum Humidity 46    
Precipitation  
Precipitation 0.00 in - - ()
Sea Level Pressure  
Sea Level Pressure 30.06 in    
Wind  
Wind Speed 13 mph (North)    
Max Wind Speed 20 mph    
Max Gust Speed 29 mph    
Visibility 10 miles    
Events      
Averages and records for this station are not official NWS values.
T = Trace of Precipitation, MM = Missing Value Source: NWS Daily Summary

Daily Weather History Graph

Daily Weather History Graph

Search for Another Location

Airport or City:

Trip Planner

Search our weather history database for the weather conditions in past years. The results will help you decide how hot, cold, wet, or windy it might be!

Date:

Astronomy

Mar. 07, 2013 Rise Set
Actual Time 6:27 AM EST 6:03 PM EST
Civil Twilight 6:00 AM EST 6:30 PM EST
Nautical Twilight 5:30 AM EST 7:00 PM EST
Astronomical Twilight 4:59 AM EST 7:31 PM EST
Moon 3:23 AM EST (3/7) 1:50 PM EST (3/7)
Length of Visible Light 12h 29m
Length of Day
11h 36m
Waning Crescent, 20% of the Moon is Illuminated
Mar 7
Waning Crescent
Mar 11
New
Mar 19
First Quarter
Mar 27
Full
Apr 3
Last Quarter

Hourly Weather History & Observations

Time (EST) Temp. Windchill Dew Point Humidity Pressure Visibility Wind Dir Wind Speed Gust Speed Precip Events Conditions
12:10 AM 38.5 °F 29.2 °F 32.7 °F 80% 29.94 in 10.0 mi North 17.3 mph 28.8 mph N/A   Overcast
12:30 AM 38.7 °F 30.9 °F 32.2 °F 78% 29.95 in 10.0 mi North 12.7 mph 21.9 mph N/A   Overcast
12:50 AM 38.7 °F 30.9 °F 32.2 °F 78% 29.96 in 10.0 mi North 12.7 mph 23.0 mph N/A   Overcast
1:10 AM 38.8 °F 30.8 °F 32.0 °F 76% 29.96 in 10.0 mi North 13.8 mph 19.6 mph N/A   Overcast
1:30 AM 38.7 °F 30.9 °F 32.0 °F 77% 29.97 in 10.0 mi North 12.7 mph 21.9 mph N/A   Mostly Cloudy
1:50 AM 38.7 °F 29.8 °F 31.8 °F 76% 29.97 in 10.0 mi North 16.1 mph 24.2 mph N/A   Mostly Cloudy
2:10 AM 38.7 °F 30.5 °F 31.5 °F 75% 29.98 in 10.0 mi North 13.8 mph 18.4 mph N/A   Scattered Clouds
2:30 AM 38.5 °F 28.6 °F 30.9 °F 74% 29.97 in 10.0 mi North 19.6 mph 27.6 mph N/A   Clear
2:50 AM 38.7 °F 29.1 °F 30.0 °F 71% 29.98 in 10.0 mi North 18.4 mph 28.8 mph N/A   Scattered Clouds
3:10 AM 38.7 °F 30.5 °F 30.0 °F 71% 29.98 in 10.0 mi NNE 13.8 mph 20.7 mph N/A   Scattered Clouds
3:31 AM 38.5 °F 29.9 °F 30.0 °F 72% 29.99 in 10.0 mi NNE 15.0 mph 24.2 mph N/A   Scattered Clouds
3:51 AM 38.3 °F 29.7 °F 29.3 °F 70% 30.00 in 10.0 mi North 15.0 mph 27.6 mph N/A   Scattered Clouds
5:51 AM 37.4 °F 29.8 °F 30.2 °F 75% 30.03 in 10.0 mi North 11.5 mph 18.4 mph N/A   Mostly Cloudy
6:11 AM 37.6 °F 30.0 °F 30.6 °F 76% 30.04 in 10.0 mi North 11.5 mph 17.3 mph N/A   Scattered Clouds
6:31 AM 36.9 °F 30.1 °F 30.7 °F 79% 30.05 in 10.0 mi North 9.2 mph - N/A   Scattered Clouds
6:41 AM 37.0 °F 29.8 °F 30.6 °F 77% 30.05 in 10.0 mi North 10.4 mph - N/A   Scattered Clouds
6:53 AM 37.4 °F 30.8 °F 30.2 °F 75% 30.05 in 10.0 mi North 9.2 mph 18.4 mph N/A   Scattered Clouds
7:53 AM 39.2 °F 31.6 °F 32.0 °F 75% 30.08 in 10.0 mi NNW 12.7 mph 17.3 mph N/A   Partly Cloudy
8:53 AM 41.0 °F 33.5 °F 30.2 °F 65% 30.10 in 10.0 mi NNW 13.8 mph 20.7 mph N/A   Scattered Clouds
9:53 AM 41.0 °F 33.5 °F 30.2 °F 65% 30.10 in 10.0 mi North 13.8 mph 23.0 mph N/A   Mostly Cloudy
10:53 AM 41.0 °F 33.1 °F 30.2 °F 65% 30.11 in 10.0 mi North 15.0 mph 23.0 mph N/A   Mostly Cloudy
11:53 AM 41.0 °F 33.5 °F 30.2 °F 65% 30.12 in 10.0 mi NNW 13.8 mph 25.3 mph N/A   Mostly Cloudy
12:53 PM 44.6 °F 38.1 °F 30.2 °F 57% 30.11 in 10.0 mi NNW 13.8 mph 23.0 mph N/A   Scattered Clouds
1:57 PM 46.4 °F 40.1 °F 30.2 °F 53% 30.08 in 10.0 mi North 15.0 mph 25.3 mph N/A   Scattered Clouds
2:55 PM 46.4 °F 39.5 °F 30.2 °F 53% 30.08 in 10.0 mi North 17.3 mph 24.2 mph N/A   Scattered Clouds
3:52 PM 46.4 °F 40.7 °F 28.4 °F 50% 30.08 in 10.0 mi North 12.7 mph 25.3 mph N/A   Scattered Clouds
4:49 PM 48.2 °F - 28.4 °F 46% 30.08 in 10.0 mi North 13.8 mph 24.2 mph N/A   Scattered Clouds
5:52 PM 44.6 °F 39.7 °F 28.4 °F 53% 30.10 in 10.0 mi North 9.2 mph 20.7 mph N/A   Scattered Clouds
6:47 PM 42.8 °F 38.0 °F 28.4 °F 57% 30.13 in 10.0 mi North 8.1 mph - N/A   Clear
7:47 PM 42.8 °F 36.6 °F 28.4 °F 57% 30.14 in 10.0 mi North 11.5 mph 18.4 mph N/A   Clear
8:54 PM 41.0 °F 35.2 °F 26.6 °F 57% 30.15 in 10.0 mi North 9.2 mph 17.3 mph N/A   Clear
9:53 PM 39.6 °F 34.0 °F 27.1 °F 61% 30.15 in 10.0 mi North 8.1 mph - N/A   Clear
10:13 PM 39.0 °F 32.3 °F 27.5 °F 63% 30.14 in 10.0 mi North 10.4 mph - N/A   Clear
10:33 PM 38.5 °F 32.7 °F 27.3 °F 64% 30.14 in 10.0 mi North 8.1 mph - N/A   Clear
10:53 PM 38.7 °F 32.4 °F 27.1 °F 63% 30.15 in 10.0 mi North 9.2 mph - N/A   Clear
11:13 PM 37.4 °F 32.8 °F 27.0 °F 66% 30.15 in 10.0 mi North 5.8 mph - N/A   Clear
11:33 PM 37.4 °F 32.8 °F 27.5 °F 67% 30.15 in 10.0 mi North 5.8 mph - N/A   Clear
11:53 PM 36.7 °F 30.5 °F 27.3 °F 69% 30.15 in 10.0 mi North 8.1 mph - N/A   Clear